Location: Bluff Heights
(33.7692°N, 118.1592°W)
Time: 08:51:05
(UTC+00:00)

XW-2B - Pass Details

Date: 03 October 2021
Orbit: 503 x 524 km, 97.5° (Epoch: 22 October)

Event Time Altitude Azimuth Distance (km) Brightness Sun altitude
Rises 12:50:48 0° 36° (NE) 2,610 ? -12.9°
Reaches altitude 10° 12:53:50 10° 64° (ENE) 1,716 ? -12.2°
Maximum altitude 12:55:41 13° 94° (E) 1,513 ? -11.9°
Drops below altitude 10° 12:57:31 10° 124° (SE) 1,708 ? -11.5°
Sets 13:00:31 0° 152° (SSE) 2,585 ? -10.9°
